This is the latest recevied weather packets stored in our database for station/object K0PFX-8. If no packets are shown the sender has not sent any weather packets the latest 10 day(s).
| Time | Temp. | Humidity | Pressure | Rain* | Wind** | Luminosity | Snow |
|---|---|---|---|---|---|---|---|
| 1778333617 | 15° C | 100% | 1010.2 hPa | 0 mm | 5.81 m/s, 256° | - | - |
| 1778332717 | 14.44° C | 100% | 1010.3 hPa | 0 mm | 2.24 m/s, 243° | - | - |
| 1778330017 | 13.89° C | 100% | 1010.3 hPa | 0 mm | 2.24 m/s, 245° | - | - |
| 1778329118 | 13.89° C | 100% | 1010.3 hPa | 0 mm | 2.24 m/s, 208° | - | - |
| 1778328216 | 13.89° C | 100% | 1010.2 hPa | 0 mm | 2.68 m/s, 242° | - | - |
| 1778327318 | 13.89° C | 100% | 1010.1 hPa | 0 mm | 2.24 m/s, 183° | - | - |
| 1778326416 | 13.89° C | 100% | 1010 hPa | 0 mm | 1.79 m/s, 262° | - | - |
| 1778325516 | 13.89° C | 100% | 1010 hPa | 0 mm | 2.24 m/s, 235° | - | - |
| 1778324649 | 13.89° C | 100% | 1010 hPa | 0 mm | 3.58 m/s, 249° | - | - |
| 1778324614 | 13.89° C | 100% | 1010 hPa | 0 mm | 3.58 m/s, 249° | - | - |
| 1778323829 | 13.33° C | 100% | 1010 hPa | 0 mm | 3.13 m/s, 245° | - | - |
| 1778323773 | 13.33° C | 100% | 1010 hPa | 0 mm | 3.13 m/s, 245° | - | - |
| 1778323715 | 13.33° C | 100% | 1010 hPa | 0 mm | 3.13 m/s, 245° | - | - |
| 1778322814 | 13.33° C | 100% | 1009.8 hPa | 0 mm | 4.02 m/s, 208° | - | - |
| 1778321954 | 13.33° C | 100% | 1009.7 hPa | 0 mm | 4.47 m/s, 253° | - | - |
| 1778321916 | 13.33° C | 100% | 1009.7 hPa | 0 mm | 4.47 m/s, 253° | - | - |
| 1778321015 | 13.33° C | 100% | 1009.5 hPa | 0 mm | 2.68 m/s, 249° | - | - |
| 1778320117 | 13.33° C | 100% | 1009.3 hPa | 0 mm | 2.68 m/s, 233° | - | - |
| 1778319214 | 13.33° C | 100% | 1009.4 hPa | 0 mm | 1.79 m/s, 191° | - | - |
| 1778318778 | 13.89° C | 100% | 1009.3 hPa | 0 mm | 0 m/s | - | - |
| 1778318314 | 13.89° C | 100% | 1009.3 hPa | 0 mm | 0 m/s | - | - |
| 1778317414 | 13.89° C | 100% | 1009.3 hPa | 0 mm | 0 m/s | - | - |
| 1778316514 | 13.33° C | 100% | 1009.3 hPa | 0 mm | 0 m/s | - | - |
| 1778315613 | 13.33° C | 100% | 1009.3 hPa | 0 mm | 0.89 m/s, 256° | - | - |
| 1778314715 | 13.89° C | 100% | 1009.3 hPa | 0 mm | 2.68 m/s, 248° | - | - |
* Rain latest hour (hover to see other rain measurements)
** Current wind speed in m/s (hover to see current wind gust speed)